Flag for U.S.A. Weather past 2 weeks in Pensacola, Florida, U.S.A.

Now
80 °F

Clear.


Feels Like: 85 °F
Forecast: 77 / 94 °F
Wind: 7 mph from Northwest

Location: Pensacola Regional Airport

Current Time: Jul 29, 2015 at 4:43:38 AM

Latest Report: Jul 29, 2015 at 3:53 AM


Visibility: 10 mi

Pressure: 29.95 "Hg

Humidity: 81%

Dew point: 74 °F

Location of PensacolaLocation

Historic Weather in Pensacola — Graph

°F

Pensacola temperature yesterday

Maximum temperature yesterday: 95 °F (at 12:53 PM)
Minimum temperature yesterday: 78 °F (at 10:53 PM)
Average temperature yesterday: 86 °F

Past Weeks' High & Low Weather Summary

 TemperatureHumidityPressure
High97 °F (Jul 16, 3:53 PM)100% (Jul 26, 12:53 AM)30.04 "Hg (Jul 26, 12:53 AM)
Low73 °F (Jul 18, 5:53 AM)38% (Jul 27, 2:53 PM)29.83 "Hg (Jul 14, 5:53 PM)
Average84 °F73%29.95 "Hg
* Reported Jul 14 2:53 AM — Jul 29 2:53 AM, Pensacola, Weather by CustomWeather, © 2015

Note: Actual official high and low records may vary slightly from our data, if they occured in-between our weather recording intervals... More about our weather records

Advertising

Pensacola weather history for previous 24 hours

 ConditionsComfort  
Time TempWeatherWind HumidityBarometerVisibility
2:53 AM
Wed, Jul 29
81 °FClear.5 mph79%29.95 "Hg10 mi
1:53 AM80 °FClear.6 mph81%29.96 "Hg10 mi
12:53 AM80 °FClear.7 mph79%29.98 "Hg10 mi
11:53 PM
Tue, Jul 28
78 °FClear.7 mph87%29.98 "Hg10 mi
10:53 PM78 °FThundershowers. Clear.9 mph84%29.99 "Hg10 mi
10:02 PM81 °FThundershowers. Mostly cloudy.16 mph77%29.97 "Hg5 mi
8:53 PM88 °FPassing clouds.12 mph65%29.95 "Hg10 mi
7:53 PM89 °FPassing clouds.12 mph61%29.94 "Hg10 mi
6:53 PM91 °FPassing clouds.7 mph57%29.93 "Hg10 mi
5:53 PM93 °FSunny.9 mph54%29.92 "Hg10 mi
4:53 PM94 °FBroken clouds.13 mph54%29.93 "Hg10 mi
3:53 PM92 °FScattered clouds.10 mph56%29.94 "Hg10 mi
2:53 PM92 °FScattered clouds.10 mph56%29.95 "Hg10 mi
1:53 PM95 °FPassing clouds.6 mph46%29.97 "Hg10 mi
12:53 PM95 °FSunny.6 mph47%29.98 "Hg10 mi
11:53 AM94 °FSunny.7 mph51%29.99 "Hg10 mi
10:53 AM91 °FSunny.6 mph56%30.00 "Hg10 mi
9:53 AM88 °FSunny.9 mph61%30.01 "Hg10 mi
8:53 AM85 °FSunny.10 mph68%30.01 "Hg10 mi
7:53 AM82 °FSunny.9 mph74%30.01 "Hg10 mi
6:53 AM80 °FSunny.7 mph76%29.99 "Hg10 mi
5:53 AM79 °FClear.5 mph79%29.97 "Hg10 mi
4:53 AM80 °FClear.8 mph76%29.94 "Hg10 mi
Weather by CustomWeather, © 2015

See weather overviewHow to use our weather pages